EW6230 Weather Reports


time (UTC)temp
C
wind
direction
speed
KPH
gust
KPH
rain 1hr
cm
rain 24hr
cm
rain mn
cm
humidity
%
barometer
mb
20260902161559 14 236 0.0 0.0 0.00 0.00 0.00 1 1000.4
20260902160048 13 236 0.0 0.0 0.00 0.00 0.00 1 1000.5
20260902154557 13 236 0.0 0.0 0.00 0.00 0.00 1 1000.6
20260902153039 13 236 0.0 0.0 0.00 0.00 0.00 1 1000.7
20260902151534 13 236 0.0 0.0 0.00 0.00 0.00 1 1000.6
20260902150030 13 236 0.0 0.0 0.00 0.00 0.00 1 1000.8
20260902144523 12 236 0.0 0.0 0.00 0.00 0.00 1 1000.9
20260902143023 12 236 0.0 0.0 0.00 0.00 0.00 1 1000.9
20260902141523 12 236 0.0 0.0 0.00 0.00 0.00 1 1001.0
20260902140016 -17 0.0 0.0 0.00 0.00 0.00 1000.9
20260902134506 -17 0.0 0.0 0.00 0.00 0.00 1001.1
20260902133002 -17 0.0 0.0 0.00 0.00 0.00 1001.1
20260902131557 -17 0.0 0.0 0.00 0.00 0.00 1001.2
20260902130054 -17 0.0 0.0 0.00 0.00 0.00 1001.2
20260902124553 -17 0.0 0.0 0.00 0.00 0.00 1001.2
20260902123044 -67 232 0.0 0.0 0.00 0.00 0.00 1 1001.4
20260902121544 12 238 0.0 0.0 0.00 0.00 0.00 1 1001.5
20260902120035 12 238 0.0 0.0 0.00 0.00 0.00 1 1001.7
20260902114531 12 238 0.0 0.0 0.00 0.00 0.00 1 1001.8
20260902113026 12 238 0.0 0.0 0.00 0.00 0.00 1 1001.9
20260902111523 12 238 0.0 0.0 0.00 0.00 0.00 1 1002.1
20260902110017 12 238 0.0 0.0 0.00 0.00 0.00 1 1002.2
20260902104515 12 238 0.0 0.0 0.00 0.00 0.00 1 1002.3
20260902103008 12 238 0.0 0.0 0.00 0.00 0.00 1 1002.4
20260902101512 12 238 0.0 0.0 0.00 0.00 0.00 1 1002.6
20260902100101 12 238 0.0 0.0 0.00 0.00 0.00 1 1002.7
20260902094555 12 238 0.0 0.0 0.00 0.00 0.00 1 1003.0
20260902093118 12 238 0.0 0.0 0.00 0.00 0.00 1 1003.1
20260902091553 12 238 0.0 0.0 0.00 0.00 0.00 1 1003.4
20260902090048 12 238 0.0 0.0 0.00 0.00 0.00 1 1003.4
20260902084550 12 238 0.0 0.0 0.00 0.00 0.00 1 1003.5
20260902083046 12 238 0.0 0.0 0.00 0.00 0.00 1 1003.6
20260902081533 12 238 0.0 0.0 0.00 0.00 0.00 1 1003.6
20260902080028 12 238 0.0 0.0 0.00 0.00 0.00 1 1003.8
20260902074524 12 238 0.0 0.0 0.00 0.00 0.00 1 1003.9
20260902073019 13 238 0.0 0.0 0.00 0.00 0.00 1 1004.1
20260902071514 13 238 0.0 0.0 0.00 0.00 0.00 1 1004.3
20260902070010 13 238 0.0 0.0 0.00 0.00 0.00 1 1004.3
20260902064511 13 238 0.0 1.6 0.00 0.00 0.00 1 1004.4
20260902063001 14 238 0.0 0.0 0.00 0.00 0.00 1 1004.5
20260902061557 14 238 0.0 0.0 0.00 0.00 0.00 1 1004.5
20260902060105 14 238 0.0 0.0 0.00 0.00 0.00 1 1004.6
20260902054548 15 229 0.0 1.6 0.00 0.00 0.00 5 1004.7
20260902053044 15 229 0.0 0.0 0.00 0.00 0.00 10 1004.8
20260902051542 15 229 0.0 0.0 0.00 0.00 0.00 12 1004.9
20260902050042 15 229 0.0 0.0 0.00 0.00 0.00 14 1005.0
20260902044531 15 229 0.0 0.0 0.00 0.00 0.00 15 1005.1
20260902043026 15 229 0.0 0.0 0.00 0.00 0.00 17 1005.1
20260902041522 15 229 0.0 0.0 0.00 0.00 0.00 21 1005.2
20260902040018 15 229 0.0 0.0 0.00 0.00 0.00 27 1005.2
20260902034514 15 229 0.0 0.0 0.00 0.00 0.00 23 1005.1
20260902033008 16 229 0.0 0.0 0.00 0.00 0.00 20 1004.9
20260902031504 16 120 0.0 0.0 0.00 0.00 0.00 31 1005.1
20260902024608 16 120 0.0 0.0 0.00 0.00 0.00 44 1004.9
20260902023056 16 120 0.0 0.0 0.00 0.00 0.00 44 1005.1
20260902021553 16 120 0.0 0.0 0.00 0.00 0.00 43 1005.2
20260902020045 16 120 0.0 0.0 0.00 0.00 0.00 45 1005.2
20260902014543 16 120 0.0 0.0 0.00 0.00 0.00 35 1005.3
20260902013039 16 120 0.0 0.0 0.00 0.00 0.00 38 1005.2
20260902011533 16 120 0.0 0.0 0.00 0.00 0.00 32 1005.4
20260902010029 16 120 0.0 0.0 0.00 0.00 0.00 34 1005.3
20260902004527 17 120 0.0 0.0 0.00 0.00 0.00 30 1005.3
20260902003028 16 120 0.0 0.0 0.00 0.00 0.00 30 1005.4
20260902001515 16 120 0.0 0.0 0.00 0.00 0.00 31 1005.5
20260902000013 16 120 0.0 0.0 0.00 0.00 0.00 30 1005.3
20260901234506 16 120 0.0 0.0 0.00 0.00 0.00 31 1005.4
20260901233002 16 120 0.0 0.0 0.00 0.00 0.00 40 1005.4
20260901231600 16 44 0.0 0.0 0.00 0.00 0.00 35 1005.4
20260901230054 16 44 0.0 0.0 0.00 0.00 0.00 31 1005.4
20260901224549 16 44 0.0 1.6 0.00 0.00 0.00 35 1005.3
20260901223048 16 44 0.0 0.0 0.00 0.00 0.00 29 1005.4
20260901221540 16 44 0.0 0.0 0.00 0.00 0.00 28 1005.4
20260901220039 16 44 0.0 0.0 0.00 0.00 0.00 28 1005.5
20260901214534 16 44 0.0 0.0 0.00 0.00 0.00 27 1005.5
20260901213039 16 42 0.0 0.0 0.00 0.00 0.00 29 1005.6
20260901211523 16 42 0.0 0.0 0.00 0.00 0.00 27 1005.8
20260901210019 16 42 0.0 0.0 0.00 0.00 0.00 25 1005.8
20260901204515 16 42 0.0 1.6 0.00 0.00 0.00 29 1005.9
20260901203009 16 278 0.0 1.6 0.00 0.00 0.00 38 1005.9
20260901201505 16 277 0.0 1.6 0.00 0.00 0.00 44 1005.9
20260901200100 17 264 0.0 1.6 0.00 0.00 0.00 50 1005.9
20260901194559 18 264 0.0 1.6 0.00 0.00 0.00 58 1005.9
20260901193056 18 336 0.0 1.6 0.00 0.00 0.00 55 1005.9
20260901191547 18 193 0.0 0.0 0.00 0.00 0.00 56 1006.0
20260901190046 18 193 0.0 0.0 0.00 0.00 0.00 60 1005.9
20260901184545 19 193 0.0 0.0 0.00 0.00 0.00 59 1005.8
20260901183036 18 146 0.0 1.6 0.00 0.00 0.00 52 1005.9
20260901181533 18 145 0.0 0.0 0.00 0.00 0.00 46 1005.9
20260901180025 17 148 0.0 0.0 0.00 0.00 0.00 26 1005.9
20260901174520 16 148 0.0 1.6 0.00 0.00 0.00 12 1005.8
20260901173015 15 247 0.0 1.6 0.00 0.00 0.00 1 1005.9
20260901171512 15 248 0.0 0.0 0.00 0.00 0.00 1 1005.9
20260901170007 14 248 0.0 0.0 0.00 0.00 0.00 1 1005.9
20260901164502 14 247 0.0 0.0 0.00 0.00 0.00 1 1005.8
20260901163058 14 248 0.0 0.0 0.00 0.00 0.00 1 1005.9